Time,TemperatureF,DewpointF,PressureIn,WindDirection,WindDirectionDegrees,WindSpeedMPH,WindSpeedGustMPH,Humidity,HourlyPrecipIn,Conditions,Clouds,dailyrainin,SoftwareType,DateUTC
2014-10-20 00:08:00,66.8,64.4,29.83,SE,130,5.0,8.0,92,0.00,,,0.25,Wunderground v.1.15,2014-10-20 05:08:00,
2014-10-20 00:18:00,66.8,64.1,29.83,ESE,117,6.0,9.0,91,0.00,,,0.25,Wunderground v.1.15,2014-10-20 05:18:00,
2014-10-20 00:23:00,66.8,64.1,29.83,East,100,7.0,11.0,91,0.00,,,0.25,Wunderground v.1.15,2014-10-20 05:23:00,
2014-10-20 00:33:00,67.1,64.1,29.83,ESE,118,9.0,9.0,90,0.00,,,0.25,Wunderground v.1.15,2014-10-20 05:33:00,
2014-10-20 00:38:00,67.1,63.7,29.82,ESE,104,8.0,11.0,89,0.00,,,0.25,Wunderground v.1.15,2014-10-20 05:38:00,
2014-10-20 00:48:00,67.2,63.8,29.82,SE,138,8.0,9.0,89,0.00,,,0.25,Wunderground v.1.15,2014-10-20 05:48:00,
2014-10-20 00:53:00,67.1,63.7,29.82,SE,134,8.0,9.0,89,0.00,,,0.25,Wunderground v.1.15,2014-10-20 05:53:00,
2014-10-20 01:03:00,67.0,64.0,29.81,ESE,107,9.0,9.0,90,0.00,,,0.25,Wunderground v.1.15,2014-10-20 06:03:00,
2014-10-20 01:08:00,67.1,64.4,29.81,ESE,118,9.0,11.0,91,0.00,,,0.25,Wunderground v.1.15,2014-10-20 06:08:00,
2014-10-20 01:18:00,67.0,64.3,29.81,ESE,121,8.0,10.0,91,0.00,,,0.25,Wunderground v.1.15,2014-10-20 06:18:00,
2014-10-20 01:23:00,67.0,64.3,29.81,ESE,118,8.0,8.0,91,0.00,,,0.25,Wunderground v.1.15,2014-10-20 06:23:00,
2014-10-20 01:33:00,67.0,64.3,29.81,SE,130,8.0,8.0,91,0.00,,,0.25,Wunderground v.1.15,2014-10-20 06:33:00,
2014-10-20 01:43:00,66.9,64.2,29.81,ESE,109,9.0,9.0,91,0.00,,,0.25,Wunderground v.1.15,2014-10-20 06:43:00,
2014-10-20 01:48:00,66.8,64.4,29.81,SE,128,9.0,13.0,92,0.00,,,0.25,Wunderground v.1.15,2014-10-20 06:48:00,
2014-10-20 01:53:00,66.9,64.5,29.81,East,101,10.0,10.0,92,0.00,,,0.25,Wunderground v.1.15,2014-10-20 06:53:00,
2014-10-20 02:03:00,67.1,64.7,29.81,ESE,123,8.0,10.0,92,0.00,,,0.25,Wunderground v.1.15,2014-10-20 07:03:00,
2014-10-20 02:13:00,66.9,64.5,29.80,East,95,8.0,13.0,92,0.00,,,0.25,Wunderground v.1.15,2014-10-20 07:13:00,
2014-10-20 02:18:00,66.8,64.4,29.80,ESE,103,8.0,13.0,92,0.00,,,0.25,Wunderground v.1.15,2014-10-20 07:18:00,
2014-10-20 02:28:00,66.8,64.7,29.80,East,86,7.0,12.0,93,0.00,,,0.25,Wunderground v.1.15,2014-10-20 07:28:00,
2014-10-20 02:33:00,66.6,64.5,29.80,East,92,9.0,12.0,93,0.00,,,0.25,Wunderground v.1.15,2014-10-20 07:33:00,
2014-10-20 02:43:00,66.6,64.5,29.79,East,91,9.0,10.0,93,0.00,,,0.25,Wunderground v.1.15,2014-10-20 07:43:00,
2014-10-20 02:48:00,66.6,64.5,29.79,ESE,107,9.0,11.0,93,0.00,,,0.25,Wunderground v.1.15,2014-10-20 07:48:00,
2014-10-20 02:58:00,66.8,64.7,29.79,East,93,9.0,11.0,93,0.00,,,0.25,Wunderground v.1.15,2014-10-20 07:58:00,
2014-10-20 03:03:00,66.7,64.6,29.78,East,93,8.0,11.0,93,0.00,,,0.25,Wunderground v.1.15,2014-10-20 08:03:00,
2014-10-20 03:13:00,66.8,64.7,29.78,East,101,7.0,9.0,93,0.00,,,0.25,Wunderground v.1.15,2014-10-20 08:13:00,
2014-10-20 03:23:00,66.9,64.8,29.78,East,96,7.0,7.0,93,0.00,,,0.25,Wunderground v.1.15,2014-10-20 08:23:00,
2014-10-20 03:28:00,66.9,64.8,29.77,ESE,110,7.0,11.0,93,0.00,,,0.25,Wunderground v.1.15,2014-10-20 08:28:00,
2014-10-20 03:38:00,66.9,64.8,29.77,East,98,7.0,10.0,93,0.00,,,0.25,Wunderground v.1.15,2014-10-20 08:38:00,
2014-10-20 03:43:00,66.9,64.8,29.77,East,84,9.0,9.0,93,0.00,,,0.25,Wunderground v.1.15,2014-10-20 08:43:00,
2014-10-20 03:53:00,66.9,64.8,29.77,East,80,8.0,12.0,93,0.00,,,0.25,Wunderground v.1.15,2014-10-20 08:53:00,
2014-10-20 03:58:00,66.9,64.8,29.77,ENE,67,9.0,13.0,93,0.00,,,0.25,Wunderground v.1.15,2014-10-20 08:58:00,
2014-10-20 04:08:00,66.9,65.1,29.77,East,99,9.0,10.0,94,0.00,,,0.00,Wunderground v.1.15,2014-10-20 09:08:00,
2014-10-20 04:18:00,66.7,64.9,29.76,ENE,76,8.0,11.0,94,0.00,,,0.00,Wunderground v.1.15,2014-10-20 09:18:00,
2014-10-20 04:23:00,66.7,64.9,29.76,ESE,102,9.0,9.0,94,0.00,,,0.00,Wunderground v.1.15,2014-10-20 09:23:00,
2014-10-20 04:33:00,66.9,65.1,29.76,East,84,8.0,10.0,94,0.00,,,0.00,Wunderground v.1.15,2014-10-20 09:33:00,
2014-10-20 04:38:00,66.9,65.1,29.76,East,96,8.0,10.0,94,0.00,,,0.00,Wunderground v.1.15,2014-10-20 09:38:00,
2014-10-20 04:48:00,66.9,65.1,29.76,East,89,9.0,11.0,94,0.00,,,0.00,Wunderground v.1.15,2014-10-20 09:48:00,
2014-10-20 04:58:00,66.9,65.1,29.76,East,79,9.0,10.0,94,0.00,,,0.00,Wunderground v.1.15,2014-10-20 09:58:00,
2014-10-20 05:03:00,66.8,65.0,29.76,ENE,75,9.0,9.0,94,0.00,,,0.00,Wunderground v.1.15,2014-10-20 10:03:00,
2014-10-20 05:13:00,66.9,65.1,29.76,East,88,8.0,10.0,94,0.00,,,0.00,Wunderground v.1.15,2014-10-20 10:13:00,
2014-10-20 05:18:00,66.9,64.8,29.76,ENE,67,8.0,12.0,93,0.00,,,0.00,Wunderground v.1.15,2014-10-20 10:18:00,
2014-10-20 05:28:00,67.0,64.9,29.76,East,89,9.0,10.0,93,0.00,,,0.00,Wunderground v.1.15,2014-10-20 10:28:00,
2014-10-20 05:33:00,67.1,65.0,29.77,East,94,9.0,12.0,93,0.00,,,0.00,Wunderground v.1.15,2014-10-20 10:33:00,
2014-10-20 05:43:00,67.1,65.0,29.77,East,89,9.0,10.0,93,0.00,,,0.00,Wunderground v.1.15,2014-10-20 10:43:00,
2014-10-20 05:48:00,67.0,64.9,29.77,East,90,8.0,10.0,93,0.00,,,0.00,Wunderground v.1.15,2014-10-20 10:48:00,
2014-10-20 05:58:00,67.0,64.9,29.76,ESE,111,7.0,9.0,93,0.00,,,0.00,Wunderground v.1.15,2014-10-20 10:58:00,
2014-10-20 06:03:00,67.0,64.9,29.77,East,97,8.0,10.0,93,0.00,,,0.00,Wunderground v.1.15,2014-10-20 11:03:00,
2014-10-20 06:13:00,66.9,64.8,29.77,ESE,103,8.0,9.0,93,0.00,,,0.00,Wunderground v.1.15,2014-10-20 11:13:00,
2014-10-20 06:23:00,66.9,64.8,29.77,East,89,8.0,9.0,93,0.00,,,0.00,Wunderground v.1.15,2014-10-20 11:23:00,
2014-10-20 06:28:00,66.9,64.8,29.77,East,96,8.0,10.0,93,0.00,,,0.00,Wunderground v.1.15,2014-10-20 11:28:00,
2014-10-20 06:38:00,66.9,64.8,29.78,ESE,103,8.0,10.0,93,0.00,,,0.00,Wunderground v.1.15,2014-10-20 11:38:00,
2014-10-20 06:43:00,67.0,64.9,29.78,East,93,7.0,7.0,93,0.00,,,0.00,Wunderground v.1.15,2014-10-20 11:43:00,
2014-10-20 06:53:00,67.0,64.9,29.78,East,98,8.0,9.0,93,0.00,,,0.00,Wunderground v.1.15,2014-10-20 11:53:00,
2014-10-20 06:58:00,67.2,65.1,29.78,East,86,9.0,10.0,93,0.00,,,0.00,Wunderground v.1.15,2014-10-20 11:58:00,
2014-10-20 07:08:00,67.0,64.6,29.78,East,92,9.0,11.0,92,0.00,,,0.00,Wunderground v.1.15,2014-10-20 12:08:00,
2014-10-20 07:13:00,67.0,64.9,29.79,ENE,74,8.0,9.0,93,0.00,,,0.00,Wunderground v.1.15,2014-10-20 12:13:00,
2014-10-20 07:23:00,67.0,64.6,29.79,ESE,107,8.0,8.0,92,0.00,,,0.00,Wunderground v.1.15,2014-10-20 12:23:00,
2014-10-20 07:33:00,67.1,64.7,29.80,East,101,8.0,8.0,92,0.00,,,0.00,Wunderground v.1.15,2014-10-20 12:33:00,
2014-10-20 07:38:00,67.1,64.7,29.80,East,90,8.0,8.0,92,0.00,,,0.00,Wunderground v.1.15,2014-10-20 12:38:00,
2014-10-20 07:48:00,66.9,64.8,29.80,East,96,7.0,10.0,93,0.00,,,0.00,Wunderground v.1.15,2014-10-20 12:48:00,
2014-10-20 07:53:00,66.8,64.7,29.80,East,89,8.0,8.0,93,0.00,,,0.00,Wunderground v.1.15,2014-10-20 12:53:00,
2014-10-20 08:03:00,66.8,64.7,29.81,ESE,102,7.0,9.0,93,0.00,,,0.01,Wunderground v.1.15,2014-10-20 13:03:00,
2014-10-20 08:13:00,66.7,64.9,29.81,East,85,8.0,9.0,94,0.00,,,0.01,Wunderground v.1.15,2014-10-20 13:13:00,
2014-10-20 08:18:00,66.6,64.8,29.82,East,89,8.0,9.0,94,0.00,,,0.01,Wunderground v.1.15,2014-10-20 13:18:00,
2014-10-20 08:23:00,66.5,64.7,29.82,East,82,8.0,9.0,94,0.00,,,0.01,Wunderground v.1.15,2014-10-20 13:23:00,
2014-10-20 08:33:00,66.3,64.5,29.82,East,100,8.0,8.0,94,0.00,,,0.02,Wunderground v.1.15,2014-10-20 13:33:00,
2014-10-20 08:43:00,66.3,64.5,29.83,East,91,6.0,8.0,94,0.05,,,0.02,Wunderground v.1.15,2014-10-20 13:43:00,
2014-10-20 08:48:00,66.4,64.9,29.83,East,98,6.0,8.0,95,0.05,,,0.02,Wunderground v.1.15,2014-10-20 13:48:00,
2014-10-20 08:58:00,66.3,64.8,29.83,ESE,105,6.0,8.0,95,0.04,,,0.03,Wunderground v.1.15,2014-10-20 13:58:00,
2014-10-20 09:08:00,66.5,65.0,29.84,East,98,7.0,8.0,95,0.04,,,0.03,Wunderground v.1.15,2014-10-20 14:08:00,
2014-10-20 09:13:00,66.5,65.0,29.84,East,93,7.0,9.0,95,0.00,,,0.03,Wunderground v.1.15,2014-10-20 14:13:00,
2014-10-20 09:23:00,66.5,65.0,29.84,East,101,7.0,10.0,95,0.00,,,0.03,Wunderground v.1.15,2014-10-20 14:23:00,
2014-10-20 09:33:00,66.8,65.3,29.84,ESE,105,7.0,9.0,95,0.00,,,0.03,Wunderground v.1.15,2014-10-20 14:33:00,
2014-10-20 09:43:00,66.8,65.3,29.84,East,93,10.0,11.0,95,0.00,,,0.03,Wunderground v.1.15,2014-10-20 14:43:00,
2014-10-20 09:48:00,67.0,65.5,29.84,East,80,10.0,11.0,95,0.00,,,0.03,Wunderground v.1.15,2014-10-20 14:48:00,
2014-10-20 09:58:00,67.4,65.9,29.84,East,86,8.0,10.0,95,0.00,,,0.03,Wunderground v.1.15,2014-10-20 14:58:00,
2014-10-20 10:03:00,67.4,65.6,29.85,East,85,8.0,10.0,94,0.00,,,0.03,Wunderground v.1.15,2014-10-20 15:03:00,
2014-10-20 10:13:00,67.6,65.8,29.85,ENE,77,10.0,11.0,94,0.00,,,0.03,Wunderground v.1.15,2014-10-20 15:13:00,
2014-10-20 10:23:00,67.9,66.1,29.85,East,90,9.0,11.0,94,0.00,,,0.03,Wunderground v.1.15,2014-10-20 15:23:00,
2014-10-20 10:28:00,67.9,66.1,29.85,East,84,10.0,11.0,94,0.00,,,0.03,Wunderground v.1.15,2014-10-20 15:28:00,
2014-10-20 10:33:00,68.0,65.9,29.85,East,83,10.0,10.0,93,0.00,,,0.03,Wunderground v.1.15,2014-10-20 15:33:00,
2014-10-20 10:43:00,68.3,66.2,29.85,East,89,9.0,13.0,93,0.00,,,0.03,Wunderground v.1.15,2014-10-20 15:43:00,
2014-10-20 10:53:00,68.3,65.6,29.85,ENE,78,12.0,15.0,91,0.00,,,0.03,Wunderground v.1.15,2014-10-20 15:53:00,
2014-10-20 11:02:00,67.9,65.5,29.85,East,86,12.0,12.0,92,0.00,,,0.03,Wunderground v.1.15,2014-10-20 16:02:00,
2014-10-20 11:08:00,67.6,65.2,29.86,ENE,74,12.0,13.0,92,0.00,,,0.03,Wunderground v.1.15,2014-10-20 16:08:00,
2014-10-20 11:13:00,67.4,65.0,29.86,ENE,57,13.0,16.0,92,0.00,,,0.03,Wunderground v.1.15,2014-10-20 16:13:00,
2014-10-20 11:23:00,67.7,65.6,29.86,ENE,67,13.0,15.0,93,0.00,,,0.03,Wunderground v.1.15,2014-10-20 16:23:00,
2014-10-20 11:33:00,67.7,65.3,29.86,ENE,69,13.0,15.0,92,0.00,,,0.03,Wunderground v.1.15,2014-10-20 16:33:00,
2014-10-20 11:43:00,67.6,65.2,29.86,ESE,104,13.0,13.0,92,0.00,,,0.03,Wunderground v.1.15,2014-10-20 16:43:00,
2014-10-20 11:53:00,67.5,65.4,29.86,East,98,10.0,10.0,93,0.00,,,0.03,Wunderground v.1.15,2014-10-20 16:53:00,
2014-10-20 12:03:00,66.9,64.8,29.86,East,83,10.0,12.0,93,0.00,,,0.03,Wunderground v.1.15,2014-10-20 17:03:00,
2014-10-20 12:13:00,67.0,65.2,29.86,ENE,78,10.0,12.0,94,0.00,,,0.03,Wunderground v.1.15,2014-10-20 17:13:00,
2014-10-20 12:23:00,66.8,65.0,29.86,ENE,74,10.0,10.0,94,0.00,,,0.03,Wunderground v.1.15,2014-10-20 17:23:00,
2014-10-20 12:33:00,67.2,65.1,29.85,East,85,12.0,14.0,93,0.00,,,0.03,Wunderground v.1.15,2014-10-20 17:33:00,
2014-10-20 12:43:00,67.6,65.5,29.85,East,84,12.0,12.0,93,0.00,,,0.03,Wunderground v.1.15,2014-10-20 17:43:00,
2014-10-20 12:53:00,67.9,65.8,29.85,East,84,12.0,13.0,93,0.00,,,0.03,Wunderground v.1.15,2014-10-20 17:53:00,
2014-10-20 12:58:00,67.8,65.7,29.85,ENE,72,11.0,14.0,93,0.00,,,0.03,Wunderground v.1.15,2014-10-20 17:58:00,
2014-10-20 13:08:00,68.0,65.9,29.85,East,81,11.0,14.0,93,0.00,,,0.03,Wunderground v.1.15,2014-10-20 18:08:00,
2014-10-20 13:18:00,68.1,66.0,29.84,East,90,12.0,16.0,93,0.00,,,0.03,Wunderground v.1.15,2014-10-20 18:18:00,
2014-10-20 13:28:00,67.5,64.8,29.83,ENE,70,13.0,19.0,91,0.00,,,0.03,Wunderground v.1.15,2014-10-20 18:28:00,
2014-10-20 13:33:00,67.6,64.9,29.83,ENE,61,13.0,15.0,91,0.00,,,0.03,Wunderground v.1.15,2014-10-20 18:33:00,
2014-10-20 13:42:00,67.6,64.6,29.83,ENE,66,14.0,18.0,90,0.00,,,0.03,Wunderground v.1.15,2014-10-20 18:42:00,
2014-10-20 13:53:00,67.5,64.1,29.83,ENE,78,14.0,18.0,89,0.00,,,0.03,Wunderground v.1.15,2014-10-20 18:53:00,
2014-10-20 13:58:00,67.4,64.0,29.82,East,80,14.0,18.0,89,0.00,,,0.03,Wunderground v.1.15,2014-10-20 18:58:00,
2014-10-20 14:08:00,67.5,64.5,29.82,East,87,13.0,18.0,90,0.00,,,0.03,Wunderground v.1.15,2014-10-20 19:08:00,
2014-10-20 14:18:00,68.2,65.2,29.82,East,90,11.0,15.0,90,0.00,,,0.03,Wunderground v.1.15,2014-10-20 19:18:00,
2014-10-20 14:28:00,68.1,65.4,29.81,ENE,77,13.0,15.0,91,0.00,,,0.03,Wunderground v.1.15,2014-10-20 19:28:00,